Regional Weather Roundup
Issued by NWS

Home | Current Version | Previous Version | Text Only | Print | Product List | Glossary On
Versions: 1 2 3 4 5 6 7 8 9 10 11 12 13 14 15 16 17 18 19 20 21 22 23 24 25 26 27 28 29 30 31 32 33 34 35 36 37 38 39 40 41 42 43 44 45 46 47 48 49 50
000
ASUS44 KOUN 260210
RWROK

WEATHER ROUNDUP FOR OKLAHOMA
NATIONAL WEATHER SERVICE NORMAN OK
900 PM CDT MON SEP 25 2017

NOTE: "FAIR" INDICATES FEW OR NO CLOUDS BELOW 12,000 FEET WITH NO
      SIGNIFICANT WEATHER AND/OR OBSTRUCTIONS TO VISIBILITY.

OKZ001>007-009>012-014-015-017-260300-
NORTHWEST OKLAHOMA AND THE PANHANDLE

CITY           SKY/WX    TMP DP  RH WIND       PRES   REMARKS
GAGE           CLOUDY    64  62  93 NE5       29.96R
GUYMON         CLOUDY    56  56 100 N12       30.01R
ENID/WOODRING  MOCLDY    66  66 100 NE13      29.92R
$$

OKZ016-021>023-033>039-044-045-260300-
SOUTHWEST OKLAHOMA

CITY           SKY/WX    TMP DP  RH WIND       PRES   REMARKS
LAWTON/REGL    CLOUDY    70  70 100 CALM      29.89R
LAWTON/FT SILL CLOUDY    69  69 100 NW3       29.88R
FREDERICK      CLOUDY    72  70  93 CALM      29.87R
CLINTON        CLOUDY    67  66  97 N5        29.94R
HOBART         CLOUDY    70  67  90 S7        29.90R
ALTUS AFB      PTCLDY    70  67  90 SE5       29.89R
$$

OKZ018>020-024>031-260300-
CENTRAL OKLAHOMA

CITY           SKY/WX    TMP DP  RH WIND       PRES   REMARKS
OKLAHOMA CITY  LGT RAIN  69  68  96 SW9       29.90S
OKC/WILEY POST LGT RAIN  71  69  93 SW10      29.91S
OKC/TINKER AFB LGT RAIN  71  68  90 S6        29.91R
STILLWATER     RAIN      68  66  93 NE12      29.91F FOG
GUTHRIE        CLOUDY    68  67  96 N7        29.90S
$$

OKZ008-013-054>072-260300-
NORTHEAST OKLAHOMA

CITY           SKY/WX    TMP DP  RH WIND       PRES   REMARKS
TULSA          CLOUDY    80  65  59 SE3       29.87R
TULSA/JONES    CLOUDY    75  67  76 CALM      29.88R
PONCA CITY     LGT RAIN  67  64  90 NE14      29.91F
BARTLESVILLE   CLOUDY    70  67  90 N6        29.91R
MUSKOGEE       PTCLDY    76  67  73 SE3       29.89R
$$

OKZ032-040>043-046>053-073>077-260300-
SOUTH CENTRAL/SOUTHEAST OKLAHOMA

CITY           SKY/WX    TMP DP  RH WIND       PRES   REMARKS
ARDMORE/DWNTWN CLOUDY    77  63  61 CALM      29.87R
MCALESTER      CLOUDY    76  66  71 SE3       29.89R
$$





USA.gov is the U.S. government's official web portal to all federal, state and local government web resources and services.